Weather History for Fort Yukon, AK

Change the Weather History Date:

Wednesday, January 2, 2013

  Actual Average Record
Temperature  
Mean Temperature 2 °F -  
Max Temperature 12 °F -10 °F 12 °F (2013)
Min Temperature -9 °F -23 °F -56 °F (1997)
Degree Days  
Heating Degree Days 64    
Moisture  
Dew Point 2 °F    
Average Humidity 87    
Maximum Humidity 100    
Minimum Humidity 55    
Precipitation  
Precipitation 0.00 in - - ()
Sea Level Pressure  
Sea Level Pressure 29.41 in    
Wind  
Wind Speed 1 mph (NE)    
Max Wind Speed 4 mph    
Max Gust Speed -    
Visibility 8 miles    
Events      
Averages and records for this station are not official NWS values.
T = Trace of Precipitation, MM = Missing Value Source: NWS Daily Summary

Daily Weather History Graph

Daily Weather History Graph

Search for Another Location

Airport:

Trip Planner

Search our weather history database for the weather conditions in past years. The results will help you decide how hot, cold, wet, or windy it might be!

Date:

Astronomy

Jan. 02, 2013 Rise Set
Actual Time 11:20 AM AKST 2:10 PM AKST
Civil Twilight 9:38 AM AKST 3:52 PM AKST
Nautical Twilight 8:20 AM AKST 5:10 PM AKST
Astronomical Twilight 7:14 AM AKST 6:16 PM AKST
Moon 11:14 PM AKST (1/2) 10:59 AM AKST (1/2)
Length of Visible Light 6h 13m
Length of Day
2h 50m
Waning Gibbous, 74% of the Moon is Illuminated
Jan 2
Waning Gibbous
Jan 4
Last Quarter
Jan 11
New
Jan 18
First Quarter
Jan 26
Full

Hourly Weather History & Observations

Time (AKST) Temp. Windchill Dew Point Humidity Pressure Visibility Wind Dir Wind Speed Gust Speed Precip Events Conditions
12:16 AM 12.2 °F 6.1 °F 5.0 °F 73% 29.26 in 10.0 mi ENE 3.5 mph - N/A   Overcast
12:36 AM 12.2 °F 6.1 °F 6.8 °F 79% 29.26 in 9.0 mi NE 3.5 mph - N/A   Overcast
12:56 AM 10.4 °F - 6.8 °F 85% 29.25 in 3.0 mi Calm Calm - N/A   Overcast
1:16 AM 10.4 °F - 6.8 °F 85% 29.25 in 3.0 mi Calm Calm - N/A   Overcast
1:36 AM 10.4 °F 4.0 °F 8.6 °F 92% 29.25 in 2.5 mi NNE 3.5 mph - N/A   Overcast
1:56 AM 10.4 °F 4.0 °F 6.8 °F 85% 29.25 in 2.0 mi NNE 3.5 mph - N/A   Overcast
2:16 AM 10.4 °F 4.0 °F 8.6 °F 92% 29.26 in 2.0 mi NE 3.5 mph - N/A   Overcast
2:36 AM 10.4 °F - 8.6 °F 92% 29.26 in 2.5 mi Calm Calm - N/A   Overcast
3:16 AM 10.4 °F - 8.6 °F 92% 29.26 in 2.5 mi Calm Calm - N/A   Overcast
3:36 AM 12.2 °F - 8.6 °F 85% 29.26 in 3.0 mi Calm Calm - N/A   Overcast
3:56 AM 12.2 °F - 8.6 °F 85% 29.26 in 7.0 mi Calm Calm - N/A   Overcast
4:16 AM 12.2 °F - 8.6 °F 85% 29.26 in 8.0 mi Calm Calm - N/A   Overcast
4:36 AM 12.2 °F - 10.4 °F 92% 29.27 in 10.0 mi Calm Calm - N/A   Overcast
4:56 AM 12.2 °F - 10.4 °F 92% 29.28 in 10.0 mi Calm Calm - N/A   Overcast
5:16 AM 12.2 °F - 10.4 °F 92% 29.28 in 3.0 mi Calm Calm - N/A   Overcast
5:36 AM 12.2 °F - 8.6 °F 85% 29.28 in 3.0 mi Calm Calm - N/A   Overcast
5:56 AM 12.2 °F - 10.4 °F 92% 29.29 in 2.5 mi Calm Calm - N/A   Overcast
6:16 AM 12.2 °F - 10.4 °F 92% 29.29 in 1.8 mi Calm Calm - N/A   Overcast
6:36 AM 12.2 °F - 10.4 °F 92% 29.29 in 3.0 mi Calm Calm - N/A   Overcast
6:56 AM 10.4 °F - 8.6 °F 92% 29.29 in 10.0 mi Calm Calm - N/A   Overcast
7:16 AM 10.4 °F - 10.4 °F 100% 29.30 in 10.0 mi Calm Calm - N/A   Overcast
7:36 AM 10.4 °F - 10.4 °F 100% 29.30 in 10.0 mi Calm Calm - N/A   Overcast
7:56 AM 10.4 °F - 8.6 °F 92% 29.31 in 10.0 mi Calm Calm - N/A   Overcast
8:16 AM 10.4 °F - 8.6 °F 92% 29.32 in 10.0 mi Calm Calm - N/A   Overcast
8:36 AM 10.4 °F - 8.6 °F 92% 29.32 in 10.0 mi Calm Calm - N/A   Overcast
8:56 AM 12.2 °F - 8.6 °F 85% 29.32 in 10.0 mi Calm Calm - N/A   Overcast
9:16 AM 12.2 °F - 10.4 °F 92% 29.33 in 10.0 mi Calm Calm - N/A   Overcast
9:36 AM 12.2 °F - 10.4 °F 92% 29.34 in 10.0 mi Calm Calm - N/A   Overcast
9:56 AM 10.4 °F - 8.6 °F 92% 29.35 in 10.0 mi Calm Calm - N/A   Mostly Cloudy
10:16 AM 10.4 °F - 8.6 °F 92% 29.36 in 10.0 mi Calm Calm - N/A   Mostly Cloudy
10:36 AM 10.4 °F - 8.6 °F 92% 29.37 in 10.0 mi Calm Calm - N/A   Overcast
10:56 AM 10.4 °F - 8.6 °F 92% 29.38 in 10.0 mi Calm Calm - N/A   Overcast
11:16 AM 10.4 °F - 6.8 °F 85% 29.39 in 10.0 mi Calm Calm - N/A   Overcast
11:36 AM 8.6 °F - 6.8 °F 92% 29.39 in 10.0 mi Calm Calm - N/A   Mostly Cloudy
11:56 AM 8.6 °F - 6.8 °F 92% 29.41 in 10.0 mi Calm Calm - N/A   Mostly Cloudy
12:16 PM 8.6 °F - 6.8 °F 92% 29.41 in 10.0 mi Calm Calm - N/A   Mostly Cloudy
12:36 PM 8.6 °F - 6.8 °F 92% 29.42 in 7.0 mi Calm Calm - N/A   Mostly Cloudy
12:56 PM 10.4 °F - 6.8 °F 85% 29.43 in 3.0 mi Calm Calm - N/A   Overcast
1:16 PM 10.4 °F - 6.8 °F 85% 29.44 in 3.0 mi Calm Calm - N/A   Overcast
1:36 PM 10.4 °F - 6.8 °F 85% 29.44 in 10.0 mi Calm Calm - N/A   Overcast
1:56 PM 10.4 °F - 6.8 °F 85% 29.44 in 10.0 mi Calm Calm - N/A   Scattered Clouds
2:16 PM 8.6 °F - 6.8 °F 92% 29.44 in 10.0 mi Calm Calm - N/A   Clear
2:36 PM 6.8 °F - 5.0 °F 92% 29.45 in 9.0 mi Calm Calm - N/A   Clear
2:56 PM 5.0 °F - 3.2 °F 92% 29.46 in 4.0 mi Calm Calm - N/A   Clear
3:16 PM 5.0 °F -2.1 °F 3.2 °F 92% 29.46 in 10.0 mi South 3.5 mph - N/A   Scattered Clouds
3:56 PM 1.4 °F - -0.4 °F 92% 29.47 in 10.0 mi Calm Calm - N/A   Partly Cloudy
4:16 PM -0.4 °F - -2.2 °F 92% 29.49 in 10.0 mi Calm Calm - N/A   Partly Cloudy
4:36 PM -0.4 °F - -4.0 °F 85% 29.49 in 10.0 mi Calm Calm - N/A   Partly Cloudy
4:56 PM -0.4 °F - -0.4 °F 100% 29.49 in 10.0 mi Calm Calm - N/A   Partly Cloudy
5:16 PM -5.8 °F - -11.2 °F 77% 29.50 in 10.0 mi Calm Calm - N/A   Partly Cloudy
5:36 PM -5.8 °F - -7.6 °F 92% 29.50 in 10.0 mi Calm Calm - N/A   Partly Cloudy
5:56 PM -4.0 °F - -5.8 °F 92% 29.51 in 10.0 mi Calm Calm - N/A   Partly Cloudy
6:16 PM -4.0 °F - -11.2 °F 71% 29.51 in 10.0 mi Calm Calm - N/A   Scattered Clouds
6:36 PM -5.8 °F - -11.2 °F 77% 29.52 in 10.0 mi Calm Calm - N/A   Scattered Clouds
6:56 PM -5.8 °F - -7.6 °F 92% 29.53 in 10.0 mi Calm Calm - N/A   Partly Cloudy
7:16 PM -5.8 °F - -9.4 °F 84% 29.54 in 10.0 mi Calm Calm - N/A   Partly Cloudy
7:36 PM -7.6 °F - -14.8 °F 71% 29.54 in 10.0 mi Calm Calm - N/A   Partly Cloudy
7:56 PM -5.8 °F - -5.8 °F 100% 29.54 in 10.0 mi Calm Calm - N/A   Partly Cloudy
8:16 PM -7.6 °F - -16.6 °F 65% 29.55 in 10.0 mi Calm Calm - N/A   Clear
8:36 PM -7.6 °F - -11.2 °F 84% 29.56 in 10.0 mi Calm Calm - N/A   Clear
8:56 PM -9.4 °F - -16.6 °F 71% 29.57 in 10.0 mi Calm Calm - N/A   Clear
9:16 PM -7.6 °F -16.5 °F -9.4 °F 92% 29.57 in 10.0 mi NNE 3.5 mph - N/A   Clear
9:36 PM -5.8 °F - -11.2 °F 77% 29.57 in 10.0 mi Calm Calm - N/A   Clear
9:56 PM -9.4 °F - -13.0 °F 84% 29.57 in 10.0 mi Calm Calm - N/A   Clear
10:16 PM -7.6 °F -16.5 °F -7.6 °F 100% 29.57 in 10.0 mi NE 3.5 mph - N/A   Clear
10:36 PM -7.6 °F - -14.8 °F 71% 29.58 in 10.0 mi Calm Calm - N/A   Clear
10:56 PM -9.4 °F -18.6 °F -9.4 °F 100% 29.59 in 10.0 mi NNE 3.5 mph - N/A   Clear
11:16 PM -7.6 °F -16.5 °F -14.8 °F 71% 29.59 in 10.0 mi NNE 3.5 mph - N/A   Clear
11:36 PM -5.8 °F - -9.4 °F 84% 29.60 in 10.0 mi Calm Calm - N/A   Clear
11:56 PM -9.4 °F - -16.6 °F 71% 29.61 in 10.0 mi Calm Calm - N/A   Clear